Location: Sperry Observatory
(40.6664°N, 74.3236°W)
Time: 15:53:13
(UTC-05:00)

UOSAT-12 - Visible Passes

Search period start: 21 December 2014 00:00
Search period end: 31 December 2014 00:00
Orbit: 594 x 663 km, 64.6° (Epoch: 20 December)

Date Brightness Start Highest point End Pass type
(mag) Time Alt. Az. Time Alt. Az. Time Alt. Az.
21 Dec 9.2 06:06:17 10° N 06:10:01 23° NE 06:13:41 10° E visible
22 Dec 8.2 06:26:09 10° NNW 06:30:38 42° NE 06:35:02 10° ESE visible
23 Dec 9.7 05:07:34 10° N 05:10:14 15° NE 05:12:52 10° ENE visible
23 Dec 7.2 06:46:20 10° NNW 06:51:04 90° ENE 06:55:40 10° SSE visible
24 Dec 9.0 05:27:38 13° N 05:31:01 26° NE 05:34:55 10° ESE visible
25 Dec 7.9 05:47:46 15° NNW 05:51:35 51° NE 05:56:05 10° SE visible
26 Dec 9.5 04:30:37 17° NNE 04:31:15 17° NE 04:34:18 10° E visible
26 Dec 7.1 06:07:58 14° NW 06:11:57 75° WSW 06:16:32 10° SSE visible
27 Dec 8.7 04:50:53 27° NNE 04:51:59 30° NE 04:56:05 10° ESE visible
27 Dec 8.0 06:28:14 12° NW 06:32:06 33° WSW 06:36:13 10° S visible
28 Dec 7.5 05:11:14 44° N 05:12:29 62° NE 05:17:03 10° SE visible
29 Dec 9.9 03:54:18 15° ENE 03:54:18 15° ENE 03:55:37 10° E visible
29 Dec 7.1 05:31:40 46° WNW 05:32:47 61° WSW 05:37:19 10° SSE visible
30 Dec 9.2 04:14:49 25° E 04:14:49 25° E 04:17:10 10° ESE visible
30 Dec 8.1 05:52:11 26° W 05:52:54 27° WSW 05:56:45 10° S visible
